EW6790 Weather Reports


Display with metric or nautical units.
time (UTC)temp
F
wind
direction
speed
MPH
gust
MPH
rain 1hr
in
rain 24hr
in
rain mn
in
humidity
%
barometer
mb
20260831153025 76 304 0.0 4.0 0.00 0.00 0.00 87 1009.0
20260831151509 77 278 1.0 4.0 0.00 0.00 0.00 87 1008.9
20260831150005 76 278 0.0 6.0 0.00 0.00 0.00 87 1008.7
20260831144546 77 268 0.0 4.0 0.00 0.00 0.00 87 1008.7
20260831143046 76 272 0.0 7.0 0.00 0.00 0.00 87 1008.5
20260831141526 75 284 3.0 7.0 0.00 0.00 0.00 85 1008.4
20260831140027 74 288 3.0 5.0 0.00 0.00 0.00 81 1008.2
20260831134506 73 238 4.0 7.0 0.00 0.00 0.00 76 1008.1
20260831133004 73 245 6.0 9.0 0.00 0.00 0.00 72 1008.1
20260831131546 73 260 4.0 7.0 0.00 0.00 0.00 70 1007.8
20260831130045 72 233 3.0 6.0 0.00 0.00 0.00 71 1007.8
20260831124524 72 217 5.0 8.0 0.00 0.00 0.00 71 1007.4
20260831123022 72 250 3.0 12.0 0.00 0.00 0.00 68 1007.3
20260831121507 71 224 5.0 8.0 0.00 0.00 0.00 59 1006.8
20260831120100 0 0.0 0.0 0.00 0.00 0.00 1006.9
20260831114556 0 0.0 0.0 0.00 0.00 0.00 1006.5
20260831113033 0 0.0 0.0 0.00 0.00 0.00 1006.5
20260831111532 0 0.0 0.0 0.00 0.00 0.00 1006.2
20260831110013 0 0.0 0.0 0.00 0.00 0.00 1006.2
20260831104509 0 0.0 0.0 0.00 0.00 0.00 1006.3
20260831103004 0 0.0 0.0 0.00 0.00 0.00 1006.2
20260831101603 0 0.0 0.0 0.00 0.00 0.00 1006.2
20260831100058 71 165 5.0 8.0 0.00 0.00 0.00 52 1006.1
20260831094557 71 181 5.0 7.0 0.00 0.00 0.00 53 1006.2
20260831093056 70 186 5.0 7.0 0.00 0.00 0.00 56 1006.2
20260831091607 71 198 4.0 7.0 0.00 0.00 0.00 55 1006.1
20260831090038 71 180 6.0 8.0 0.00 0.00 0.00 57 1006.2
20260831084536 71 187 5.0 8.0 0.00 0.00 0.00 57 1006.2
20260831083023 71 195 7.0 9.0 0.00 0.00 0.00 60 1005.9
20260831081516 71 189 5.0 8.0 0.00 0.00 0.00 63 1005.8
20260831080106 72 186 7.0 12.0 0.00 0.00 0.00 64 1005.8
20260831074557 72 174 7.0 12.0 0.00 0.00 0.00 62 1005.7
20260831073039 72 185 6.0 10.0 0.00 0.00 0.00 62 1005.9
20260831071537 72 181 6.0 12.0 0.00 0.00 0.00 60 1005.9
20260831070020 72 169 6.0 10.0 0.00 0.00 0.00 58 1006.1
20260831064518 71 183 6.0 9.0 0.00 0.00 0.00 58 1006.2
20260831063100 71 169 4.0 9.0 0.00 0.00 0.00 58 1006.2
20260831061559 71 132 5.0 8.0 0.00 0.00 0.00 54 1006.5
20260831060042 71 172 6.0 8.0 0.00 0.00 0.00 57 1006.5
20260831054539 71 140 4.0 7.0 0.00 0.00 0.00 57 1006.5
20260831053025 71 162 3.0 6.0 0.00 0.00 0.00 60 1006.6
20260831051520 71 125 2.0 6.0 0.00 0.00 0.00 62 1006.8
20260831050100 71 140 2.0 6.0 0.00 0.00 0.00 65 1006.8
20260831044558 71 150 2.0 5.0 0.00 0.00 0.00 69 1006.7
20260831043037 72 160 2.0 5.0 0.00 0.00 0.00 72 1006.7
20260831041548 72 197 3.0 7.0 0.00 0.00 0.00 76 1006.5
20260831040020 73 185 6.0 11.0 0.00 0.00 0.00 78 1006.4
20260831034516 73 174 6.0 12.0 0.00 0.00 0.00 79 1006.2
20260831033059 73 147 6.0 14.0 0.00 0.00 0.00 81 1006.4
20260831031609 73 166 7.0 14.0 0.00 0.00 0.00 78 1006.5
20260831030043 73 162 9.0 14.0 0.00 0.00 0.00 75 1006.4
20260831024550 73 150 7.0 12.0 0.00 0.00 0.00 77 1006.4
20260831023019 73 148 5.0 10.0 0.00 0.00 0.00 84 1006.6
20260831021515 74 160 4.0 10.0 0.00 0.00 0.00 87 1006.7
20260831020056 75 141 8.0 15.0 0.00 0.00 0.00 87 1006.6
20260831014554 75 125 7.0 14.0 0.00 0.00 0.00 87 1006.5
20260831013035 75 156 7.0 13.0 0.00 0.00 0.00 86 1006.4
20260831011531 76 163 8.0 16.0 0.00 0.00 0.00 85 1006.3
20260831010011 76 184 8.0 16.0 0.00 0.00 0.00 85 1006.1
20260831004508 77 168 7.0 15.0 0.00 0.00 0.00 83 1006.1
20260831003050 78 142 9.0 16.0 0.00 0.00 0.00 81 1006.1
20260831001546 79 187 8.0 15.0 0.00 0.00 0.00 83 1006.1
20260831000027 79 184 7.0 16.0 0.00 0.00 0.00 83 1006.0
20260830234537 80 162 11.0 18.0 0.00 0.00 0.00 81 1005.9
20260830233003 81 153 8.0 15.0 0.00 0.00 0.00 80 1005.7
20260830231601 81 161 9.0 16.0 0.00 0.00 0.00 78 1005.7
20260830230042 82 182 10.0 15.0 0.00 0.00 0.00 78 1005.7
20260830224548 83 164 9.0 14.0 0.00 0.00 0.00 77 1005.5
20260830223024 83 150 8.0 14.0 0.00 0.00 0.00 78 1005.5
20260830221529 83 176 8.0 14.0 0.00 0.00 0.00 77 1005.5
20260830220005 84 185 10.0 15.0 0.00 0.00 0.00 74 1005.2
20260830214505 84 187 11.0 16.0 0.00 0.00 0.00 74 1005.2
20260830213045 83 190 9.0 17.0 0.00 0.00 0.00 77 1005.4
20260830211543 83 131 9.0 17.0 0.00 0.00 0.00 76 1005.6
20260830210027 83 175 9.0 14.0 0.00 0.00 0.00 76 1005.7
20260830204536 82 176 10.0 17.0 0.00 0.00 0.00 75 1005.8
20260830203009 83 229 10.0 17.0 0.00 0.00 0.00 71 1005.8
20260830201508 84 233 13.0 20.0 0.00 0.00 0.00 70 1005.8
20260830200010 83 146 7.0 18.0 0.00 0.00 0.00 74 1005.8
20260830194505 84 170 9.0 17.0 0.00 0.00 0.00 75 1005.7
20260830193002 85 192 8.0 17.0 0.00 0.00 0.00 73 1005.8
20260830191502 85 169 8.0 15.0 0.00 0.00 0.00 71 1005.8
20260830190100 85 184 8.0 14.0 0.00 0.00 0.00 71 1005.9
20260830184559 84 191 11.0 16.0 0.00 0.00 0.00 71 1005.7
20260830183040 84 179 11.0 16.0 0.00 0.00 0.00 72 1005.9
20260830181538 84 219 9.0 17.0 0.00 0.00 0.00 71 1006.0
20260830180023 85 144 9.0 16.0 0.00 0.00 0.00 74 1005.9
20260830174521 84 188 5.0 11.0 0.00 0.00 0.00 76 1006.0
20260830173017 84 169 6.0 11.0 0.00 0.00 0.00 70 1005.9
20260830171516 85 169 6.0 15.0 0.00 0.00 0.00 73 1006.0
20260830170014 84 207 4.0 6.0 0.00 0.00 0.00 72 1006.2
20260830164533 82 219 1.0 9.0 0.00 0.00 0.00 75 1006.4
20260830163011 82 221 7.0 13.0 0.00 0.00 0.00 76 1006.9
20260830161511 81 185 4.0 17.0 0.00 0.00 0.00 79 1007.0
20260830160051 80 205 10.0 16.0 0.00 0.00 0.00 78 1007.1
20260830154554 79 203 10.0 15.0 0.00 0.00 0.00 79 1007.1